Location: Saint-Jean-des-Mauvrets
(47.4000°N, 0.4500°W)
Time: 13:59:58
(UTC+02:00)

ISS - Visible Passes

Search period start: 15 July 2024 00:00
Search period end: 25 July 2024 00:00
Orbit: 410 x 424 km, 51.6° (Epoch: 15 July)

Date Brightness Start Highest point End Pass type
(mag) Time Alt. Az. Time Alt. Az. Time Alt. Az.
15 Jul -2.3 00:37:58 10° WNW 00:41:06 38° N 00:44:15 10° ENE visible
15 Jul -3.2 02:14:47 10° WNW 02:17:21 50° WNW 02:17:21 50° WNW visible
15 Jul -2.3 23:49:36 10° WNW 23:52:44 37° N 23:55:53 10° ENE visible
16 Jul -3.4 01:26:32 10° WNW 01:29:51 62° NNE 01:30:10 58° NE visible
16 Jul -2.4 23:01:11 10° WNW 23:04:21 39° N 23:07:30 10° ENE visible
17 Jul -2.9 00:38:15 10° WNW 00:41:30 49° NNE 00:43:07 25° ENE visible
17 Jul -1.5 02:15:04 10° WNW 02:15:59 17° W 02:15:59 17° W visible
17 Jul -2.6 23:49:55 10° WNW 23:53:06 41° N 23:56:07 11° E visible
18 Jul -2.8 01:26:42 10° WNW 01:29:00 40° W 01:29:00 40° W visible
18 Jul -2.4 23:01:31 10° WNW 23:04:39 38° N 23:07:47 10° ENE visible
19 Jul -3.8 00:38:20 10° WNW 00:41:40 82° NNE 00:42:03 67° E visible
19 Jul -3.4 23:49:58 10° WNW 23:53:16 60° NNE 23:55:07 23° E visible
20 Jul -1.6 01:26:54 10° W 01:27:59 18° W 01:27:59 18° W visible
20 Jul -2.9 23:01:34 10° WNW 23:04:48 47° NNE 23:08:02 10° E visible
21 Jul -3.2 00:38:21 10° WNW 00:41:05 43° WSW 00:41:05 43° WSW visible
21 Jul -3.9 23:49:53 10° WNW 23:53:12 74° SSW 23:54:12 41° SE visible
22 Jul -3.7 23:01:25 10° WNW 23:04:45 78° NNE 23:07:20 16° ESE visible
23 Jul -1.8 00:38:36 10° W 00:40:12 19° WSW 00:40:12 19° WSW visible
23 Jul -2.8 23:49:50 10° WNW 23:52:51 33° SW 23:53:21 31° SSW visible
24 Jul -3.4 23:01:11 10° WNW 23:04:25 51° SSW 23:06:30 19° SE visible
